Location: B�rgermoos
(47.6500°N, 9.0667°E)
Time: 03:08:57
(UTC+00:00)

Vanguard 1 - All Passes

Search period start: 01 August 2021 00:00
Search period end: 11 August 2021 00:00
Orbit: 651 x 3831 km, 34.2° (Epoch: 31 July)

Date Brightness Start Highest point End Pass type
(mag) Time Alt. Az. Time Alt. Az. Time Alt. Az.
01 Aug - 10:54:31 10° SW 10:58:57 24° SSE 11:05:15 10° ESE daylight
01 Aug - 13:12:39 10° WSW 13:18:45 30° S 13:28:31 10° SE daylight
01 Aug - 15:32:58 10° WSW 15:39:48 20° SSW 15:49:30 10° SSE daylight
02 Aug - 08:59:33 10° SSE 09:00:42 11° SSE 09:01:54 10° SE daylight
02 Aug - 11:14:57 10° SW 11:19:33 26° S 11:26:16 10° ESE daylight
02 Aug - 13:33:31 10° WSW 13:39:34 27° S 13:48:58 10° SE daylight
02 Aug - 15:55:09 10° WSW 16:00:44 15° SSW 16:07:56 10° S daylight
03 Aug - 09:18:35 10° S 09:21:09 14° SSE 09:24:06 10° SE daylight
03 Aug - 11:35:32 10° SW 11:40:14 26° S 11:47:09 10° ESE daylight
03 Aug - 13:54:35 10° WSW 14:00:25 23° SSW 14:09:03 10° SSE daylight
03 Aug - 16:19:54 10° SW 16:21:39 10° SSW 16:23:30 10° SSW daylight
04 Aug - 09:38:31 10° SSW 09:41:39 17° SSE 09:45:28 10° ESE daylight
04 Aug - 11:56:13 10° SW 12:00:56 25° S 12:07:52 10° SE daylight
04 Aug - 14:15:58 10° WSW 14:21:17 18° SSW 14:28:40 10° SSE daylight
05 Aug - 09:58:47 10° SW 10:02:14 20° SSE 10:06:33 10° ESE daylight
05 Aug - 12:17:02 10° WSW 12:21:41 23° S 12:28:23 10° SE daylight
05 Aug - 14:37:58 10° SW 14:42:09 14° SSW 14:47:27 10° S daylight
06 Aug - 10:19:14 10° SW 10:22:50 21° S 10:27:27 10° SE daylight
06 Aug - 12:38:03 10° SW 12:42:28 20° S 12:48:37 10° SSE daylight
07 Aug - 08:22:36 10° S 08:24:27 12° SSE 08:26:23 10° SE daylight
07 Aug - 10:39:52 10° SW 10:43:30 21° S 10:48:12 10° SE daylight
07 Aug - 12:59:20 10° SW 13:03:16 16° SSW 13:08:24 10° SSE daylight
08 Aug - 08:42:29 10° SSW 08:45:02 15° SSE 08:47:45 10° SE daylight
08 Aug - 11:00:38 10° SW 11:04:11 19° S 11:08:45 10° SE daylight
08 Aug - 13:21:20 10° SW 13:24:05 12° SSW 13:27:19 10° S daylight
09 Aug - 09:02:47 10° SSW 09:05:37 17° S 09:08:44 10° SE daylight
09 Aug - 11:21:36 10° SW 11:24:54 17° S 11:29:02 10° SSE daylight
10 Aug - 07:06:44 10° S 07:07:10 10° SSE 07:07:36 10° SSE daylight
10 Aug - 09:23:18 10° SW 09:26:15 17° S 09:29:31 10° SE daylight
10 Aug - 11:42:54 10° SW 11:45:38 14° SSW 11:48:53 10° SSE daylight
